Regional Weather Roundup
Issued by NWS

Home | Current Version | Previous Version | Graphics & Text | Print | Product List | Glossary On
Versions: 1 2 3 4 5 6 7 8 9 10 11 12 13 14 15 16 17 18 19 20 21 22 23 24 25 26 27 28 29 30 31 32 33 34 35 36 37 38 39 40 41 42 43 44 45 46 47 48 49 50
000
ASUS43 KOAX 030402
RWRNE

WEATHER ROUNDUP FOR NEBRASKA
NATIONAL WEATHER SERVICE OMAHA NE
1100 PM CDT SAT MAY 02 2015

NOTES: SATELLITE DATA IS BEING USED TO AUGMENT CLOUD COVER ABOVE
       12000 FEET.
       "FAIR" INDICATES FEW OR NO CLOUDS BELOW 12,000 FEET WITH NO
       SIGNIFICANT WEATHER AND/OR OBSTRUCTIONS TO VISIBILITY.

  * THESE STATIONS DO NOT REPORT WEATHER SUCH AS RAIN...SNOW OR FOG.

NEZ001>004-019>022-054>056-030500-
NEBRASKA PANHANDLE

CITY           SKY/WX    TMP DP  RH WIND       PRES   REMARKS
SCOTTSBLUFF    CLOUDY    62  40  44 SW6       29.82S
ALLIANCE       CLOUDY    67  40  37 SW17      29.81R
CHADRON        MOCLDY    56  42  59 SW12      29.77R
KIMBALL        CLOUDY    54  45  72 S7        29.89S
SIDNEY         CLOUDY    55  46  71 SW9       29.88R
$$

NEZ057>060-069>072-079>082-030500-
SOUTHWEST NEBRASKA

CITY           SKY/WX    TMP DP  RH WIND       PRES   REMARKS
NORTH PLATTE   CLOUDY    55  45  68 NW6       29.77R
IMPERIAL       CLOUDY    69  41  36 W7        29.81S
MCCOOK         MOCLDY    68  48  48 SW8       29.77R
$$

NEZ005>010-023>029-035>040-094-030500-
NORTH CENTRAL NEBRASKA

CITY           SKY/WX    TMP DP  RH WIND       PRES   REMARKS
VALENTINE      PTCLDY    61  42  49 CALM      29.71R
AINSWORTH      CLEAR     61  47  60 E7        29.71S
BROKEN BOW     CLEAR     61  43  51 CALM      29.73R
ORD            CLEAR     68  46  45 SE14      29.71R
$$

NEZ041-046>049-061>064-073>077-083>087-030500-
SOUTH CENTRAL NEBRASKA

CITY           SKY/WX    TMP DP  RH WIND       PRES   REMARKS
GRAND ISLAND   PTCLDY    72  53  51 S16       29.72S
AURORA         MOCLDY    71  54  54 S16G22    29.72S
HASTINGS       PTCLDY    72  52  49 S10       29.74R
KEARNEY *      PTCLDY    66  46  48 E8        29.74S
$$

NEZ011>018-030>034-042>045-030500-
NORTHEAST NEBRASKA

CITY           SKY/WX    TMP DP  RH WIND       PRES   REMARKS
NORFOLK        CLOUDY    66  52  60 S7        29.71F
ALBION         CLOUDY    64  51  62 SE12      29.72S
BLAIR          CLOUDY    69  54  58 W12G20    29.83R
COLUMBUS *     CLOUDY    63  52  67 S13       29.79F
FREMONT        TSTM      65  61  88 SE9       29.83S
TEKAMAH        LGT RAIN  67  58  72 S21       29.75S
$$

NEZ050>053-065>068-078-088>093-030500-
SOUTHEAST NEBRASKA

CITY           SKY/WX    TMP DP  RH WIND       PRES   REMARKS
LINCOLN        CLOUDY    73  51  46 S17       29.75F
OMAHA EPPLEY   CLOUDY    69  54  58 S16       29.78R
BEATRICE       CLOUDY    71  51  50 S15       29.78S
FALLS CITY     MOCLDY    64  53  67 SE8       29.83S
NEBRASKA CITY  CLOUDY    65  50  58 S12       29.82R
PLATTSMOUTH    CLOUDY    67  52  58 SE14      29.81R
$$

NEZ044-045-051>053-067-030500-
OMAHA AREA

CITY           SKY/WX    TMP DP  RH WIND       PRES   REMARKS
OMAHA EPPLEY   CLOUDY    69  54  58 S16       29.78R
BLAIR          CLOUDY    69  54  58 W12G20    29.83R
FREMONT        TSTM      65  61  88 SE9       29.83S
OFFUTT AFB     CLOUDY    69  54  58 SE18      29.78R
PLATTSMOUTH    CLOUDY    67  52  58 SE14      29.81R
WAHOO          RAIN      67  58  72 N20       29.82R
$$


USA.gov is the U.S. government's official web portal to all federal, state and local government web resources and services.